Change the Weather History Date:

Wednesday, May 15, 2013

  Actual Average Record
Temperature  
Mean Temperature 68 °F 57 °F  
Max Temperature 79 °F 69 °F 88 °F (1991)
Min Temperature 57 °F 46 °F 24 °F (1895)
Degree Days  
Heating Degree Days 0 9  
Month to date heating degree days 97 156  
Since 1 July heating degree days 6438 6554  
Cooling Degree Days 3 1  
Month to date cooling degree days 18 9  
Year to date cooling degree days 18 16  
Growing Degree Days 20 (Base 50)    
Moisture  
Dew Point 49 °F    
Average Humidity 53    
Maximum Humidity 73    
Minimum Humidity 32    
Precipitation  
Precipitation T in 0.11 in 1.75 in (2001)
Month to date precipitation 0.44 1.57  
Year to date precipitation 14.49 9.78  
Snow  
Snow 0.00 in 0.00 in 0.00 in ()
Month to date snowfall 0.0 0.0  
Since 1 July snowfall 30.2 51.1  
Snow Depth 0.00 in    
Sea Level Pressure  
Sea Level Pressure 29.71 in    
Wind  
Wind Speed 12 mph (West)    
Max Wind Speed 23 mph    
Max Gust Speed 30 mph    
Visibility 10 miles    
Events      
T = Trace of Precipitation, MM = Missing Value Source: NWS Daily Summary

Daily Weather History Graph

Daily Weather History Graph

Search for Another Location

Airport or City:

Trip Planner

Search our weather history database for the weather conditions in past years. The results will help you decide how hot, cold, wet, or windy it might be!

Date:

Astronomy

May. 15, 2013 Rise Set
Actual Time 6:15 AM EDT 8:54 PM EDT
Civil Twilight 5:42 AM EDT 9:27 PM EDT
Nautical Twilight 5:02 AM EDT 10:08 PM EDT
Astronomical Twilight 4:15 AM EDT 10:54 PM EDT
Moon 10:51 AM EDT (5/15) 12:39 AM EDT (5/15)
Length of Visible Light 15h 44m
Length of Day
14h 39m
Waxing Crescent, 26% of the Moon is Illuminated
May 15
Waxing Crescent
May 18
First Quarter
May 25
Full
May 31
Last Quarter
Jun 8
New

Hourly Weather History & Observations

Time (EDT) Temp. Dew Point Humidity Pressure Visibility Wind Dir Wind Speed Gust Speed Precip Events Conditions
12:53 AM 64.0 °F 54.0 °F 70% 29.68 in 10.0 mi SE 8.1 mph - N/A   Clear
1:53 AM 64.0 °F 54.0 °F 70% 29.64 in 10.0 mi South 6.9 mph - 0.00 in   Scattered Clouds
2:53 AM 64.0 °F 54.0 °F 70% 29.59 in 10.0 mi South 9.2 mph - N/A   Mostly Cloudy
3:53 AM 64.9 °F 55.0 °F 70% 29.57 in 10.0 mi South 6.9 mph - N/A   Clear
4:53 AM 71.1 °F 57.0 °F 61% 29.56 in 10.0 mi SW 16.1 mph 23.0 mph N/A   Clear
5:53 AM 70.0 °F 55.9 °F 61% 29.57 in 10.0 mi SW 15.0 mph - N/A   Clear
6:53 AM 71.1 °F 54.0 °F 55% 29.59 in 10.0 mi WSW 15.0 mph - N/A   Clear
7:53 AM 70.0 °F 50.0 °F 49% 29.64 in 10.0 mi West 16.1 mph - N/A   Clear
8:53 AM 71.1 °F 50.0 °F 47% 29.68 in 10.0 mi West 11.5 mph - N/A   Clear
9:53 AM 72.0 °F 50.0 °F 46% 29.70 in 10.0 mi WNW 13.8 mph - N/A   Clear
10:53 AM 73.0 °F 48.0 °F 41% 29.71 in 10.0 mi WNW 15.0 mph 18.4 mph N/A   Clear
11:53 AM 75.0 °F 48.0 °F 38% 29.74 in 10.0 mi WNW 20.7 mph 24.2 mph N/A   Clear
12:53 PM 75.0 °F 45.0 °F 34% 29.76 in 10.0 mi West 19.6 mph 29.9 mph N/A   Clear
1:53 PM 77.0 °F 46.9 °F 34% 29.76 in 10.0 mi West 15.0 mph 25.3 mph N/A   Clear
2:53 PM 78.1 °F 46.9 °F 33% 29.76 in 10.0 mi WNW 15.0 mph 21.9 mph N/A   Clear
3:53 PM 78.1 °F 46.0 °F 32% 29.76 in 10.0 mi WNW 16.1 mph 21.9 mph N/A   Clear
4:53 PM 78.1 °F 46.0 °F 32% 29.76 in 10.0 mi WNW 15.0 mph 20.7 mph N/A   Clear
5:53 PM 77.0 °F 46.0 °F 33% 29.77 in 10.0 mi West 17.3 mph 21.9 mph N/A   Clear
6:53 PM 73.9 °F 45.0 °F 35% 29.76 in 10.0 mi West 10.4 mph - N/A   Clear
7:53 PM 73.0 °F 44.1 °F 35% 29.78 in 10.0 mi West 8.1 mph - N/A   Clear
8:53 PM 70.0 °F 45.0 °F 41% 29.77 in 10.0 mi West 6.9 mph - N/A   Clear
9:53 PM 66.0 °F 45.0 °F 47% 29.81 in 10.0 mi WNW 5.8 mph - N/A   Clear
10:53 PM 64.0 °F 44.1 °F 48% 29.82 in 10.0 mi NW 3.5 mph - N/A   Scattered Clouds
11:53 PM 61.0 °F 44.1 °F 54% 29.82 in 10.0 mi NW 4.6 mph - N/A   Clear